Time,TemperatureF,DewpointF,PressureIn,WindDirection,WindDirectionDegrees,WindSpeedMPH,WindSpeedGustMPH,Humidity,HourlyPrecipIn,Conditions,Clouds,dailyrainin,SoftwareType,DateUTC
2013-04-22 00:00:00,38.1,29.5,30.24,ESE,110,0.0,5.0,71,0.00,,,0.00,Weather View 32 v70,2013-04-22 07:00:00,
2013-04-22 00:05:00,37.9,29.4,30.24,ESE,110,0.0,5.0,71,0.00,,,0.00,Weather View 32 v70,2013-04-22 07:05:00,
2013-04-22 00:10:00,37.9,29.0,30.24,ESE,110,0.0,5.0,70,0.00,,,0.00,Weather View 32 v70,2013-04-22 07:10:00,
2013-04-22 00:15:00,37.9,29.0,30.24,ESE,110,0.0,5.0,70,0.00,,,0.00,Weather View 32 v70,2013-04-22 07:15:00,
2013-04-22 00:20:00,37.9,28.7,30.24,ESE,110,0.0,4.0,69,0.00,,,0.00,Weather View 32 v70,2013-04-22 07:20:00,
2013-04-22 00:25:00,37.8,29.2,30.24,ESE,110,0.0,4.0,71,0.00,,,0.00,Weather View 32 v70,2013-04-22 07:25:00,
2013-04-22 00:30:00,37.8,29.2,30.24,ESE,110,0.0,4.0,71,0.00,,,0.00,Weather View 32 v70,2013-04-22 07:30:00,
2013-04-22 00:35:00,37.9,29.0,30.24,ESE,110,0.0,4.0,70,0.00,,,0.00,Weather View 32 v70,2013-04-22 07:35:00,
2013-04-22 00:40:00,37.9,29.0,30.24,ESE,110,0.0,0.0,70,0.00,,,0.00,Weather View 32 v70,2013-04-22 07:40:00,
2013-04-22 00:45:00,38.3,29.4,30.24,ESE,110,0.0,0.0,70,0.00,,,0.00,Weather View 32 v70,2013-04-22 07:45:00,
2013-04-22 00:50:00,38.5,29.2,30.24,ESE,110,0.0,0.0,69,0.00,,,0.00,Weather View 32 v70,2013-04-22 07:50:00,
2013-04-22 00:55:00,38.7,29.4,30.24,ESE,110,0.0,0.0,69,0.00,,,0.00,Weather View 32 v70,2013-04-22 07:55:00,
2013-04-22 01:00:00,38.7,29.4,30.24,ESE,110,0.0,0.0,69,0.00,,,0.00,Weather View 32 v70,2013-04-22 08:00:00,
2013-04-22 01:05:00,38.8,29.5,30.24,ESE,110,0.0,0.0,69,0.00,,,0.00,Weather View 32 v70,2013-04-22 08:05:00,
2013-04-22 01:10:00,39.0,29.3,30.24,ESE,110,0.0,0.0,68,0.00,,,0.00,Weather View 32 v70,2013-04-22 08:10:00,
2013-04-22 01:15:00,39.2,29.2,30.24,ESE,110,0.0,0.0,67,0.00,,,0.00,Weather View 32 v70,2013-04-22 08:15:00,
2013-04-22 01:20:00,39.4,28.6,30.27,ESE,110,0.0,4.0,65,0.00,,,0.00,Weather View 32 v70,2013-04-22 08:20:00,
2013-04-22 01:26:00,39.9,26.3,30.27,East,82,4.0,9.0,58,0.00,,,0.00,Weather View 32 v70,2013-04-22 08:26:00,
2013-04-22 01:31:00,40.5,26.0,30.27,ESE,116,4.0,9.0,56,0.00,,,0.00,Weather View 32 v70,2013-04-22 08:31:00,
2013-04-22 01:36:00,40.8,25.9,30.27,SE,127,9.0,9.0,55,0.00,,,0.00,Weather View 32 v70,2013-04-22 08:36:00,
2013-04-22 01:41:00,40.8,26.3,30.27,ESE,120,4.0,10.0,56,0.00,,,0.00,Weather View 32 v70,2013-04-22 08:41:00,
2013-04-22 01:46:00,40.8,26.3,30.27,SE,125,3.0,10.0,56,0.00,,,0.00,Weather View 32 v70,2013-04-22 08:46:00,
2013-04-22 01:51:00,40.6,25.7,30.27,East,80,4.0,10.0,55,0.00,,,0.00,Weather View 32 v70,2013-04-22 08:51:00,
2013-04-22 01:56:00,40.6,25.7,30.27,East,101,6.0,10.0,55,0.00,,,0.00,Weather View 32 v70,2013-04-22 08:56:00,
2013-04-22 02:01:00,40.5,25.5,30.27,East,86,3.0,10.0,55,0.00,,,0.00,Weather View 32 v70,2013-04-22 09:01:00,
2013-04-22 02:06:00,40.5,25.5,30.27,East,91,6.0,10.0,55,0.00,,,0.00,Weather View 32 v70,2013-04-22 09:06:00,
2013-04-22 02:11:00,40.3,25.8,30.27,East,88,3.0,10.0,56,0.00,,,0.00,Weather View 32 v70,2013-04-22 09:11:00,
2013-04-22 02:16:00,40.3,25.8,30.27,ENE,73,5.0,10.0,56,0.00,,,0.00,Weather View 32 v70,2013-04-22 09:16:00,
2013-04-22 02:21:00,40.1,26.1,30.27,ENE,59,4.0,10.0,57,0.00,,,0.00,Weather View 32 v70,2013-04-22 09:21:00,
2013-04-22 02:26:00,39.9,25.9,30.27,ENE,61,4.0,10.0,57,0.00,,,0.00,Weather View 32 v70,2013-04-22 09:26:00,
2013-04-22 02:31:00,39.7,26.2,30.27,NNE,24,3.0,10.0,58,0.00,,,0.00,Weather View 32 v70,2013-04-22 09:31:00,
2013-04-22 02:36:00,39.7,26.6,30.27,ENE,68,4.0,10.0,59,0.00,,,0.00,Weather View 32 v70,2013-04-22 09:36:00,
2013-04-22 02:41:00,39.7,26.6,30.27,East,81,4.0,9.0,59,0.00,,,0.00,Weather View 32 v70,2013-04-22 09:41:00,
2013-04-22 02:46:00,39.6,26.4,30.27,East,83,3.0,9.0,59,0.00,,,0.00,Weather View 32 v70,2013-04-22 09:46:00,
2013-04-22 02:51:00,39.4,26.6,30.24,East,84,2.0,8.0,60,0.00,,,0.00,Weather View 32 v70,2013-04-22 09:51:00,
2013-04-22 02:56:00,39.4,26.6,30.24,East,86,0.0,8.0,60,0.00,,,0.00,Weather View 32 v70,2013-04-22 09:56:00,
2013-04-22 03:01:00,39.4,26.6,30.24,ESE,118,4.0,6.0,60,0.00,,,0.00,Weather View 32 v70,2013-04-22 10:01:00,
2013-04-22 03:06:00,39.2,26.9,30.27,ESE,115,4.0,6.0,61,0.00,,,0.00,Weather View 32 v70,2013-04-22 10:06:00,
2013-04-22 03:11:00,39.2,26.9,30.27,ESE,108,3.0,6.0,61,0.00,,,0.00,Weather View 32 v70,2013-04-22 10:11:00,
2013-04-22 03:16:00,39.0,27.1,30.27,ESE,108,3.0,6.0,62,0.00,,,0.00,Weather View 32 v70,2013-04-22 10:16:00,
2013-04-22 03:21:00,39.0,27.1,30.27,ENE,74,0.0,6.0,62,0.00,,,0.00,Weather View 32 v70,2013-04-22 10:21:00,
2013-04-22 03:26:00,38.8,27.3,30.27,ENE,75,0.0,6.0,63,0.00,,,0.00,Weather View 32 v70,2013-04-22 10:26:00,
2013-04-22 03:31:00,38.8,27.3,30.27,ENE,74,2.0,6.0,63,0.00,,,0.00,Weather View 32 v70,2013-04-22 10:31:00,
2013-04-22 03:36:00,38.8,27.3,30.27,ESE,108,5.0,6.0,63,0.00,,,0.00,Weather View 32 v70,2013-04-22 10:36:00,
2013-04-22 03:41:00,38.8,26.5,30.27,ESE,106,4.0,6.0,61,0.00,,,0.00,Weather View 32 v70,2013-04-22 10:41:00,
2013-04-22 03:46:00,38.8,26.5,30.27,ESE,106,0.0,6.0,61,0.00,,,0.00,Weather View 32 v70,2013-04-22 10:46:00,
2013-04-22 03:51:00,38.8,26.1,30.27,ESE,106,3.0,6.0,60,0.00,,,0.00,Weather View 32 v70,2013-04-22 10:51:00,
2013-04-22 03:56:00,38.7,25.6,30.27,ESE,105,4.0,6.0,59,0.00,,,0.00,Weather View 32 v70,2013-04-22 10:56:00,
2013-04-22 04:02:00,38.7,25.6,30.27,East,80,3.0,6.0,59,0.00,,,0.00,Weather View 32 v70,2013-04-22 11:02:00,
2013-04-22 04:07:00,38.7,25.1,30.30,ENE,77,6.0,6.0,58,0.00,,,0.00,Weather View 32 v70,2013-04-22 11:07:00,
2013-04-22 04:12:00,38.5,25.4,30.30,ENE,68,0.0,6.0,59,0.00,,,0.00,Weather View 32 v70,2013-04-22 11:12:00,
2013-04-22 04:17:00,38.5,25.4,30.30,ENE,68,2.0,6.0,59,0.00,,,0.00,Weather View 32 v70,2013-04-22 11:17:00,
2013-04-22 04:22:00,38.5,25.4,30.30,NNE,30,0.0,6.0,59,0.00,,,0.00,Weather View 32 v70,2013-04-22 11:22:00,
2013-04-22 04:27:00,38.3,25.6,30.30,NNE,31,0.0,6.0,60,0.00,,,0.00,Weather View 32 v70,2013-04-22 11:27:00,
2013-04-22 04:32:00,38.1,25.4,30.30,NNE,31,3.0,6.0,60,0.00,,,0.00,Weather View 32 v70,2013-04-22 11:32:00,
2013-04-22 04:37:00,38.1,25.8,30.30,NE,45,2.0,6.0,61,0.00,,,0.00,Weather View 32 v70,2013-04-22 11:37:00,
2013-04-22 04:42:00,37.9,25.7,30.30,NE,52,4.0,6.0,61,0.00,,,0.00,Weather View 32 v70,2013-04-22 11:42:00,
2013-04-22 04:47:00,37.9,26.1,30.30,ENE,72,0.0,6.0,62,0.00,,,0.00,Weather View 32 v70,2013-04-22 11:47:00,
2013-04-22 04:52:00,37.8,25.9,30.30,ENE,75,5.0,6.0,62,0.00,,,0.00,Weather View 32 v70,2013-04-22 11:52:00,
2013-04-22 04:57:00,37.6,26.1,30.30,ENE,72,4.0,6.0,63,0.00,,,0.00,Weather View 32 v70,2013-04-22 11:57:00,
2013-04-22 05:02:00,37.6,26.1,30.30,ENE,72,5.0,6.0,63,0.00,,,0.00,Weather View 32 v70,2013-04-22 12:02:00,
2013-04-22 05:07:00,37.6,26.1,30.30,ENE,65,3.0,6.0,63,0.00,,,0.00,Weather View 32 v70,2013-04-22 12:07:00,
2013-04-22 05:12:00,37.6,26.5,30.30,ENE,72,3.0,6.0,64,0.00,,,0.00,Weather View 32 v70,2013-04-22 12:12:00,
2013-04-22 05:17:00,37.4,26.3,30.30,NE,35,5.0,6.0,64,0.00,,,0.00,Weather View 32 v70,2013-04-22 12:17:00,
2013-04-22 05:22:00,37.4,26.3,30.30,ENE,61,3.0,8.0,64,0.00,,,0.00,Weather View 32 v70,2013-04-22 12:22:00,
2013-04-22 05:27:00,37.4,26.7,30.30,NE,54,3.0,8.0,65,0.00,,,0.00,Weather View 32 v70,2013-04-22 12:27:00,
2013-04-22 05:32:00,37.4,26.7,30.30,NE,54,5.0,8.0,65,0.00,,,0.00,Weather View 32 v70,2013-04-22 12:32:00,
2013-04-22 05:37:00,37.2,27.3,30.33,ENE,78,4.0,8.0,67,0.00,,,0.00,Weather View 32 v70,2013-04-22 12:37:00,
2013-04-22 05:42:00,37.0,27.1,30.33,ENE,73,5.0,8.0,67,0.00,,,0.00,Weather View 32 v70,2013-04-22 12:42:00,
2013-04-22 05:47:00,37.0,27.5,30.33,ENE,71,5.0,8.0,68,0.00,,,0.00,Weather View 32 v70,2013-04-22 12:47:00,
2013-04-22 05:52:00,36.9,27.6,30.33,ENE,77,4.0,8.0,69,0.00,,,0.00,Weather View 32 v70,2013-04-22 12:52:00,
2013-04-22 05:57:00,36.7,27.5,30.33,ENE,75,4.0,8.0,69,0.00,,,0.00,Weather View 32 v70,2013-04-22 12:57:00,
2013-04-22 06:02:00,36.5,27.6,30.33,ENE,73,5.0,8.0,70,0.00,,,0.00,Weather View 32 v70,2013-04-22 13:02:00,
2013-04-22 06:07:00,36.3,27.5,30.33,ENE,69,3.0,8.0,70,0.00,,,0.00,Weather View 32 v70,2013-04-22 13:07:00,
2013-04-22 06:12:00,36.3,27.8,30.33,NE,47,4.0,8.0,71,0.00,,,0.00,Weather View 32 v70,2013-04-22 13:12:00,
2013-04-22 06:17:00,36.1,27.6,30.33,ENE,76,4.0,8.0,71,0.00,,,0.00,Weather View 32 v70,2013-04-22 13:17:00,
2013-04-22 06:23:00,36.1,27.6,30.33,East,82,4.0,8.0,71,0.00,,,0.00,Weather View 32 v70,2013-04-22 13:23:00,
2013-04-22 06:28:00,36.0,27.5,30.33,ENE,74,3.0,8.0,71,0.00,,,0.00,Weather View 32 v70,2013-04-22 13:28:00,
2013-04-22 06:33:00,36.0,27.5,30.33,ENE,57,3.0,8.0,71,0.00,,,0.00,Weather View 32 v70,2013-04-22 13:33:00,
2013-04-22 06:38:00,36.0,27.5,30.33,ENE,73,5.0,8.0,71,0.00,,,0.00,Weather View 32 v70,2013-04-22 13:38:00,
2013-04-22 06:43:00,36.1,27.3,30.33,East,81,3.0,8.0,70,0.00,,,0.00,Weather View 32 v70,2013-04-22 13:43:00,
2013-04-22 06:45:00,36.1,27.3,30.33,East,82,4.0,8.0,70,0.00,,,0.00,Weather View 32 v70,2013-04-22 13:45:00,
2013-04-22 06:48:00,36.1,26.9,30.33,East,81,4.0,8.0,69,0.00,,,0.00,Weather View 32 v70,2013-04-22 13:48:00,
2013-04-22 06:53:00,36.3,27.1,30.33,East,85,0.0,8.0,69,0.00,,,0.00,Weather View 32 v70,2013-04-22 13:53:00,
2013-04-22 06:58:00,36.7,27.1,30.33,East,83,4.0,7.0,68,0.00,,,0.00,Weather View 32 v70,2013-04-22 13:58:00,
2013-04-22 07:03:00,37.0,27.1,30.33,East,83,3.0,7.0,67,0.00,,,0.00,Weather View 32 v70,2013-04-22 14:03:00,
2013-04-22 07:08:00,37.2,26.5,30.36,East,81,5.0,8.0,65,0.00,,,0.00,Weather View 32 v70,2013-04-22 14:08:00,
2013-04-22 07:13:00,37.6,26.5,30.36,ENE,75,4.0,8.0,64,0.00,,,0.00,Weather View 32 v70,2013-04-22 14:13:00,
2013-04-22 07:18:00,37.9,26.8,30.36,East,79,6.0,8.0,64,0.00,,,0.00,Weather View 32 v70,2013-04-22 14:18:00,
2013-04-22 07:23:00,38.1,26.2,30.36,ENE,76,4.0,8.0,62,0.00,,,0.00,Weather View 32 v70,2013-04-22 14:23:00,
2013-04-22 07:28:00,38.1,26.2,30.36,ENE,74,3.0,8.0,62,0.00,,,0.00,Weather View 32 v70,2013-04-22 14:28:00,
2013-04-22 07:33:00,38.3,26.4,30.36,East,95,5.0,8.0,62,0.00,,,0.00,Weather View 32 v70,2013-04-22 14:33:00,
2013-04-22 07:38:00,38.5,26.6,30.36,ENE,65,0.0,8.0,62,0.00,,,0.00,Weather View 32 v70,2013-04-22 14:38:00,
2013-04-22 07:43:00,38.5,25.8,30.36,NE,52,4.0,8.0,60,0.00,,,0.00,Weather View 32 v70,2013-04-22 14:43:00,
2013-04-22 07:45:00,38.7,26.4,30.36,NE,54,5.0,8.0,61,0.00,,,0.00,Weather View 32 v70,2013-04-22 14:45:00,
2013-04-22 07:48:00,39.0,26.3,30.36,NE,39,4.0,8.0,60,0.00,,,0.00,Weather View 32 v70,2013-04-22 14:48:00,
2013-04-22 08:00:00,38.8,25.7,30.36,East,82,6.0,8.0,59,0.00,,,0.00,Weather View 32 v70,2013-04-22 15:00:00,
2013-04-22 08:15:00,39.4,22.7,30.36,East,86,3.0,8.0,51,0.00,,,0.00,Weather View 32 v70,2013-04-22 15:15:00,
2013-04-22 08:20:00,39.7,23.1,30.36,NE,38,5.0,8.0,51,0.00,,,0.00,Weather View 32 v70,2013-04-22 15:20:00,
2013-04-22 08:25:00,39.9,22.8,30.36,ESE,104,4.0,8.0,50,0.00,,,0.00,Weather View 32 v70,2013-04-22 15:25:00,
2013-04-22 08:30:00,40.1,23.4,30.36,ESE,122,3.0,8.0,51,0.00,,,0.00,Weather View 32 v70,2013-04-22 15:30:00,
2013-04-22 08:38:00,40.5,22.3,30.39,SSE,159,4.0,9.0,48,0.00,,,0.00,Weather View 32 v70,2013-04-22 15:38:00,
2013-04-22 08:43:00,41.2,21.9,30.39,ENE,72,3.0,9.0,46,0.00,,,0.00,Weather View 32 v70,2013-04-22 15:43:00,
2013-04-22 08:45:00,41.2,21.9,30.39,ENE,73,7.0,9.0,46,0.00,,,0.00,Weather View 32 v70,2013-04-22 15:45:00,
2013-04-22 08:48:00,41.5,22.3,30.39,ENE,75,5.0,9.0,46,0.00,,,0.00,Weather View 32 v70,2013-04-22 15:48:00,
2013-04-22 08:53:00,42.1,22.2,30.39,SE,130,9.0,9.0,45,0.00,,,0.00,Weather View 32 v70,2013-04-22 15:53:00,
2013-04-22 08:58:00,42.8,21.8,30.39,East,101,6.0,10.0,43,0.00,,,0.00,Weather View 32 v70,2013-04-22 15:58:00,
2013-04-22 09:03:00,42.8,22.4,30.39,ENE,74,4.0,10.0,44,0.00,,,0.00,Weather View 32 v70,2013-04-22 16:03:00,
2013-04-22 09:08:00,42.8,22.4,30.39,East,92,5.0,10.0,44,0.00,,,0.00,Weather View 32 v70,2013-04-22 16:08:00,
2013-04-22 09:13:00,43.0,22.0,30.39,East,99,4.0,10.0,43,0.00,,,0.00,Weather View 32 v70,2013-04-22 16:13:00,
2013-04-22 09:18:00,43.7,22.1,30.39,ESE,114,6.0,11.0,42,0.00,,,0.00,Weather View 32 v70,2013-04-22 16:18:00,
2013-04-22 09:23:00,42.8,21.8,30.39,ESE,118,6.0,11.0,43,0.00,,,0.00,Weather View 32 v70,2013-04-22 16:23:00,
2013-04-22 09:28:00,42.1,21.7,30.39,SE,135,5.0,11.0,44,0.00,,,0.00,Weather View 32 v70,2013-04-22 16:28:00,
2013-04-22 09:33:00,43.7,21.5,30.39,East,83,6.0,11.0,41,0.00,,,0.00,Weather View 32 v70,2013-04-22 16:33:00,
2013-04-22 09:38:00,46.6,22.9,30.39,ENE,73,6.0,11.0,39,0.00,,,0.00,Weather View 32 v70,2013-04-22 16:38:00,
2013-04-22 09:43:00,48.6,24.1,30.39,East,99,6.0,11.0,38,0.00,,,0.00,Weather View 32 v70,2013-04-22 16:43:00,
2013-04-22 09:45:00,47.8,23.4,30.39,ENE,75,7.0,11.0,38,0.00,,,0.00,Weather View 32 v70,2013-04-22 16:45:00,
2013-04-22 09:48:00,47.5,23.7,30.36,East,98,8.0,11.0,39,0.00,,,0.00,Weather View 32 v70,2013-04-22 16:48:00,
2013-04-22 09:53:00,46.8,23.1,30.36,ESE,113,4.0,11.0,39,0.00,,,0.00,Weather View 32 v70,2013-04-22 16:53:00,
2013-04-22 09:58:00,45.7,22.7,30.36,ENE,76,3.0,11.0,40,0.00,,,0.00,Weather View 32 v70,2013-04-22 16:58:00,
2013-04-22 10:03:00,46.2,22.6,30.36,ENE,57,3.0,11.0,39,0.00,,,0.00,Weather View 32 v70,2013-04-22 17:03:00,
2013-04-22 10:08:00,46.6,22.9,30.36,ENE,74,5.0,11.0,39,0.00,,,0.00,Weather View 32 v70,2013-04-22 17:08:00,
2013-04-22 10:13:00,45.9,22.3,30.36,ENE,59,6.0,11.0,39,0.00,,,0.00,Weather View 32 v70,2013-04-22 17:13:00,
2013-04-22 10:18:00,45.1,21.6,30.36,East,88,8.0,11.0,39,0.00,,,0.00,Weather View 32 v70,2013-04-22 17:18:00,
2013-04-22 10:23:00,45.0,21.5,30.36,ESE,122,4.0,11.0,39,0.00,,,0.00,Weather View 32 v70,2013-04-22 17:23:00,
2013-04-22 10:28:00,44.8,21.3,30.36,ENE,62,4.0,11.0,39,0.00,,,0.00,Weather View 32 v70,2013-04-22 17:28:00,
2013-04-22 10:33:00,45.0,21.5,30.36,East,81,4.0,11.0,39,0.00,,,0.00,Weather View 32 v70,2013-04-22 17:33:00,
2013-04-22 10:38:00,45.3,21.8,30.36,ENE,78,6.0,11.0,39,0.00,,,0.00,Weather View 32 v70,2013-04-22 17:38:00,
2013-04-22 10:43:00,44.8,21.3,30.36,East,83,3.0,11.0,39,0.00,,,0.00,Weather View 32 v70,2013-04-22 17:43:00,
2013-04-22 10:45:00,45.0,21.5,30.36,East,84,4.0,11.0,39,0.00,,,0.00,Weather View 32 v70,2013-04-22 17:45:00,
2013-04-22 10:48:00,45.0,21.5,30.39,East,94,5.0,9.0,39,0.00,,,0.00,Weather View 32 v70,2013-04-22 17:48:00,
2013-04-22 10:53:00,46.0,23.0,30.39,ENE,66,4.0,11.0,40,0.00,,,0.00,Weather View 32 v70,2013-04-22 17:53:00,
2013-04-22 10:58:00,47.1,23.4,30.39,ENE,73,8.0,11.0,39,0.00,,,0.00,Weather View 32 v70,2013-04-22 17:58:00,
2013-04-22 11:03:00,47.3,22.9,30.39,ESE,118,9.0,11.0,38,0.00,,,0.00,Weather View 32 v70,2013-04-22 18:03:00,
2013-04-22 11:08:00,46.9,22.6,30.39,SE,128,4.0,13.0,38,0.00,,,0.00,Weather View 32 v70,2013-04-22 18:08:00,
2013-04-22 11:13:00,47.3,22.9,30.39,NE,56,4.0,13.0,38,0.00,,,0.00,Weather View 32 v70,2013-04-22 18:13:00,
2013-04-22 11:19:00,48.4,23.9,30.39,ESE,113,4.0,13.0,38,0.00,,,0.00,Weather View 32 v70,2013-04-22 18:19:00,
2013-04-22 11:24:00,49.1,23.9,30.39,SE,136,8.0,13.0,37,0.00,,,0.00,Weather View 32 v70,2013-04-22 18:24:00,
2013-04-22 11:29:00,50.4,25.0,30.39,ESE,102,6.0,13.0,37,0.00,,,0.00,Weather View 32 v70,2013-04-22 18:29:00,
2013-04-22 11:34:00,49.8,25.2,30.39,ESE,105,4.0,13.0,38,0.00,,,0.00,Weather View 32 v70,2013-04-22 18:34:00,
2013-04-22 11:39:00,48.6,24.1,30.39,ENE,76,6.0,15.0,38,0.00,,,0.00,Weather View 32 v70,2013-04-22 18:39:00,
2013-04-22 11:44:00,47.8,23.4,30.39,ENE,73,5.0,15.0,38,0.00,,,0.00,Weather View 32 v70,2013-04-22 18:44:00,
2013-04-22 11:45:00,48.2,23.7,30.39,East,83,4.0,15.0,38,0.00,,,0.00,Weather View 32 v70,2013-04-22 18:45:00,
2013-04-22 11:49:00,48.7,24.2,30.36,East,101,8.0,15.0,38,0.00,,,0.00,Weather View 32 v70,2013-04-22 18:49:00,
2013-04-22 11:54:00,49.1,24.5,30.36,ENE,65,3.0,15.0,38,0.00,,,0.00,Weather View 32 v70,2013-04-22 18:54:00,
2013-04-22 11:59:00,49.6,24.4,30.36,SE,131,5.0,15.0,37,0.00,,,0.00,Weather View 32 v70,2013-04-22 18:59:00,
2013-04-22 12:04:00,49.8,24.5,30.36,SSE,159,5.0,15.0,37,0.00,,,0.00,Weather View 32 v70,2013-04-22 19:04:00,
2013-04-22 12:09:00,50.2,24.9,30.36,SE,144,5.0,15.0,37,0.00,,,0.00,Weather View 32 v70,2013-04-22 19:09:00,
2013-04-22 12:14:00,49.1,23.9,30.36,ENE,73,8.0,15.0,37,0.00,,,0.00,Weather View 32 v70,2013-04-22 19:14:00,
2013-04-22 12:19:00,48.2,23.1,30.36,ENE,70,7.0,15.0,37,0.00,,,0.00,Weather View 32 v70,2013-04-22 19:19:00,
2013-04-22 12:24:00,49.1,23.9,30.36,NE,46,5.0,15.0,37,0.00,,,0.00,Weather View 32 v70,2013-04-22 19:24:00,
2013-04-22 12:29:00,50.5,25.2,30.36,NNE,32,7.0,15.0,37,0.00,,,0.00,Weather View 32 v70,2013-04-22 19:29:00,
2013-04-22 12:34:00,50.2,24.9,30.36,ENE,60,4.0,15.0,37,0.00,,,0.00,Weather View 32 v70,2013-04-22 19:34:00,
2013-04-22 12:39:00,49.1,23.9,30.36,North,0,3.0,13.0,37,0.00,,,0.00,Weather View 32 v70,2013-04-22 19:39:00,
2013-04-22 12:44:00,49.3,24.1,30.36,East,94,5.0,13.0,37,0.00,,,0.00,Weather View 32 v70,2013-04-22 19:44:00,
2013-04-22 12:45:00,49.5,24.2,30.36,ENE,73,6.0,13.0,37,0.00,,,0.00,Weather View 32 v70,2013-04-22 19:45:00,
2013-04-22 12:49:00,50.0,24.7,30.36,ENE,71,10.0,13.0,37,0.00,,,0.00,Weather View 32 v70,2013-04-22 19:49:00,
2013-04-22 12:54:00,50.4,25.0,30.36,NE,49,8.0,13.0,37,0.00,,,0.00,Weather View 32 v70,2013-04-22 19:54:00,
2013-04-22 12:59:00,50.2,24.9,30.36,SSE,159,3.0,13.0,37,0.00,,,0.00,Weather View 32 v70,2013-04-22 19:59:00,
2013-04-22 13:04:00,50.4,25.0,30.36,ESE,111,4.0,13.0,37,0.00,,,0.00,Weather View 32 v70,2013-04-22 20:04:00,
2013-04-22 13:09:00,51.1,25.7,30.36,ESE,105,8.0,13.0,37,0.00,,,0.00,Weather View 32 v70,2013-04-22 20:09:00,
2013-04-22 13:14:00,50.4,25.0,30.36,SE,131,6.0,12.0,37,0.00,,,0.00,Weather View 32 v70,2013-04-22 20:14:00,
2013-04-22 13:19:00,50.5,25.2,30.36,ENE,67,10.0,12.0,37,0.00,,,0.00,Weather View 32 v70,2013-04-22 20:19:00,
2013-04-22 13:24:00,50.4,25.0,30.36,NE,55,4.0,12.0,37,0.00,,,0.00,Weather View 32 v70,2013-04-22 20:24:00,
2013-04-22 13:29:00,50.5,25.2,30.36,East,98,4.0,12.0,37,0.00,,,0.00,Weather View 32 v70,2013-04-22 20:29:00,
2013-04-22 13:34:00,51.6,26.1,30.36,North,5,8.0,12.0,37,0.00,,,0.00,Weather View 32 v70,2013-04-22 20:34:00,
2013-04-22 13:39:00,51.4,26.0,30.36,SE,125,6.0,12.0,37,0.00,,,0.00,Weather View 32 v70,2013-04-22 20:39:00,
2013-04-22 13:44:00,52.2,26.0,30.36,ENE,67,6.0,12.0,36,0.00,,,0.00,Weather View 32 v70,2013-04-22 20:44:00,
2013-04-22 13:45:00,52.2,26.0,30.36,ENE,64,10.0,12.0,36,0.00,,,0.00,Weather View 32 v70,2013-04-22 20:45:00,
2013-04-22 13:49:00,51.8,25.6,30.36,East,81,4.0,12.0,36,0.00,,,0.00,Weather View 32 v70,2013-04-22 20:49:00,
2013-04-22 13:54:00,52.0,25.8,30.36,NE,50,4.0,12.0,36,0.00,,,0.00,Weather View 32 v70,2013-04-22 20:54:00,
2013-04-22 13:59:00,52.5,26.3,30.36,SE,127,6.0,12.0,36,0.00,,,0.00,Weather View 32 v70,2013-04-22 20:59:00,
2013-04-22 14:04:00,53.1,26.8,30.36,SE,124,6.0,12.0,36,0.00,,,0.00,Weather View 32 v70,2013-04-22 21:04:00,
2013-04-22 14:09:00,52.9,26.6,30.36,SSE,159,5.0,12.0,36,0.00,,,0.00,Weather View 32 v70,2013-04-22 21:09:00,
2013-04-22 14:14:00,52.7,26.4,30.36,ENE,66,9.0,12.0,36,0.00,,,0.00,Weather View 32 v70,2013-04-22 21:14:00,
2013-04-22 14:19:00,52.7,26.4,30.36,ESE,123,5.0,11.0,36,0.00,,,0.00,Weather View 32 v70,2013-04-22 21:19:00,
2013-04-22 14:24:00,52.7,26.4,30.36,ESE,122,8.0,11.0,36,0.00,,,0.00,Weather View 32 v70,2013-04-22 21:24:00,
2013-04-22 14:29:00,53.6,27.2,30.36,ESE,117,11.0,12.0,36,0.00,,,0.00,Weather View 32 v70,2013-04-22 21:29:00,
2013-04-22 14:34:00,53.6,27.2,30.33,SE,128,5.0,15.0,36,0.00,,,0.00,Weather View 32 v70,2013-04-22 21:34:00,
2013-04-22 14:39:00,54.0,27.6,30.33,SSE,159,4.0,15.0,36,0.00,,,0.00,Weather View 32 v70,2013-04-22 21:39:00,
2013-04-22 14:44:00,54.1,27.7,30.33,NE,46,8.0,15.0,36,0.00,,,0.00,Weather View 32 v70,2013-04-22 21:44:00,
2013-04-22 14:45:00,54.3,27.9,30.33,ENE,66,4.0,15.0,36,0.00,,,0.00,Weather View 32 v70,2013-04-22 21:45:00,
2013-04-22 14:50:00,54.5,28.0,30.33,ENE,73,6.0,15.0,36,0.00,,,0.00,Weather View 32 v70,2013-04-22 21:50:00,
2013-04-22 14:55:00,54.7,28.2,30.33,East,79,5.0,15.0,36,0.00,,,0.00,Weather View 32 v70,2013-04-22 21:55:00,
2013-04-22 15:00:00,54.5,28.0,30.33,North,10,3.0,15.0,36,0.00,,,0.00,Weather View 32 v70,2013-04-22 22:00:00,
2013-04-22 15:05:00,54.7,28.2,30.33,ENE,77,6.0,15.0,36,0.00,,,0.00,Weather View 32 v70,2013-04-22 22:05:00,
2013-04-22 15:10:00,54.1,27.7,30.33,ENE,60,8.0,15.0,36,0.00,,,0.00,Weather View 32 v70,2013-04-22 22:10:00,
2013-04-22 15:15:00,54.3,27.9,30.33,ENE,76,7.0,15.0,36,0.00,,,0.00,Weather View 32 v70,2013-04-22 22:15:00,
2013-04-22 15:20:00,54.1,27.7,30.33,ESE,103,10.0,15.0,36,0.00,,,0.00,Weather View 32 v70,2013-04-22 22:20:00,
2013-04-22 15:25:00,54.9,28.4,30.33,SSE,158,8.0,15.0,36,0.00,,,0.00,Weather View 32 v70,2013-04-22 22:25:00,
2013-04-22 15:30:00,54.9,28.4,30.33,SE,131,13.0,15.0,36,0.00,,,0.00,Weather View 32 v70,2013-04-22 22:30:00,
2013-04-22 15:35:00,56.5,29.1,30.33,East,79,9.0,15.0,35,0.00,,,0.00,Weather View 32 v70,2013-04-22 22:35:00,
2013-04-22 15:40:00,56.3,28.9,30.33,NNE,33,8.0,15.0,35,0.00,,,0.00,Weather View 32 v70,2013-04-22 22:40:00,
2013-04-22 15:45:00,55.2,28.7,30.33,ESE,103,7.0,15.0,36,0.00,,,0.00,Weather View 32 v70,2013-04-22 22:45:00,
2013-04-22 15:50:00,54.9,28.4,30.30,ESE,115,10.0,15.0,36,0.00,,,0.00,Weather View 32 v70,2013-04-22 22:50:00,
2013-04-22 15:55:00,54.7,28.2,30.30,East,91,6.0,15.0,36,0.00,,,0.00,Weather View 32 v70,2013-04-22 22:55:00,
2013-04-22 16:00:00,54.7,28.2,30.30,ENE,78,8.0,15.0,36,0.00,,,0.00,Weather View 32 v70,2013-04-22 23:00:00,
2013-04-22 16:05:00,55.2,28.7,30.33,SE,131,8.0,15.0,36,0.00,,,0.00,Weather View 32 v70,2013-04-22 23:05:00,
2013-04-22 16:10:00,55.4,28.1,30.33,East,83,6.0,15.0,35,0.00,,,0.00,Weather View 32 v70,2013-04-22 23:10:00,
2013-04-22 16:15:00,55.4,28.1,30.33,East,96,8.0,15.0,35,0.00,,,0.00,Weather View 32 v70,2013-04-22 23:15:00,
2013-04-22 16:20:00,54.7,28.2,30.33,ENE,68,8.0,15.0,36,0.00,,,0.00,Weather View 32 v70,2013-04-22 23:20:00,
2013-04-22 16:25:00,54.7,28.2,30.33,ENE,63,5.0,15.0,36,0.00,,,0.00,Weather View 32 v70,2013-04-22 23:25:00,
2013-04-22 16:30:00,54.9,28.4,30.33,ESE,112,8.0,15.0,36,0.00,,,0.00,Weather View 32 v70,2013-04-22 23:30:00,
2013-04-22 16:35:00,54.7,28.2,30.33,East,88,6.0,15.0,36,0.00,,,0.00,Weather View 32 v70,2013-04-22 23:35:00,
2013-04-22 16:40:00,54.0,27.6,30.33,SE,129,6.0,15.0,36,0.00,,,0.00,Weather View 32 v70,2013-04-22 23:40:00,
2013-04-22 16:45:00,53.8,27.4,30.33,NE,42,6.0,15.0,36,0.00,,,0.00,Weather View 32 v70,2013-04-22 23:45:00,
2013-04-22 16:50:00,54.3,27.9,30.33,SSE,155,4.0,15.0,36,0.00,,,0.00,Weather View 32 v70,2013-04-22 23:50:00,
2013-04-22 16:55:00,57.6,30.1,30.33,East,79,4.0,15.0,35,0.00,,,0.00,Weather View 32 v70,2013-04-22 23:55:00,
2013-04-22 17:01:00,59.4,31.6,30.33,ENE,75,6.0,15.0,35,0.00,,,0.00,Weather View 32 v70,2013-04-23 00:01:00,
2013-04-22 17:06:00,61.7,33.0,30.33,NE,54,5.0,15.0,34,0.00,,,0.00,Weather View 32 v70,2013-04-23 00:06:00,
2013-04-22 17:11:00,63.9,34.9,30.33,NE,52,5.0,15.0,34,0.00,,,0.00,Weather View 32 v70,2013-04-23 00:11:00,
2013-04-22 17:16:00,60.3,32.4,30.33,SE,135,11.0,12.0,35,0.00,,,0.00,Weather View 32 v70,2013-04-23 00:16:00,
2013-04-22 17:21:00,59.7,32.0,30.33,ESE,109,6.0,13.0,35,0.00,,,0.00,Weather View 32 v70,2013-04-23 00:21:00,
2013-04-22 17:26:00,61.3,32.7,30.33,ENE,77,6.0,13.0,34,0.00,,,0.00,Weather View 32 v70,2013-04-23 00:26:00,
2013-04-22 17:31:00,60.4,32.6,30.33,ENE,76,6.0,13.0,35,0.00,,,0.00,Weather View 32 v70,2013-04-23 00:31:00,
2013-04-22 17:36:00,61.0,32.4,30.30,ENE,77,8.0,13.0,34,0.00,,,0.00,Weather View 32 v70,2013-04-23 00:36:00,
2013-04-22 17:41:00,59.4,31.6,30.30,East,100,8.0,13.0,35,0.00,,,0.00,Weather View 32 v70,2013-04-23 00:41:00,
2013-04-22 17:46:00,56.7,29.3,30.30,ESE,104,8.0,13.0,35,0.00,,,0.00,Weather View 32 v70,2013-04-23 00:46:00,
2013-04-22 17:51:00,55.2,28.7,30.33,East,85,8.0,13.0,36,0.00,,,0.00,Weather View 32 v70,2013-04-23 00:51:00,
2013-04-22 17:56:00,55.6,28.3,30.33,NNW,342,3.0,13.0,35,0.00,,,0.00,Weather View 32 v70,2013-04-23 00:56:00,
2013-04-22 18:01:00,56.3,28.9,30.33,ENE,72,11.0,13.0,35,0.00,,,0.00,Weather View 32 v70,2013-04-23 01:01:00,
2013-04-22 18:06:00,58.1,30.5,30.33,NE,53,6.0,13.0,35,0.00,,,0.00,Weather View 32 v70,2013-04-23 01:06:00,
2013-04-22 18:11:00,58.1,30.5,30.33,ENE,75,8.0,14.0,35,0.00,,,0.00,Weather View 32 v70,2013-04-23 01:11:00,
2013-04-22 18:16:00,57.9,30.4,30.33,East,81,5.0,14.0,35,0.00,,,0.00,Weather View 32 v70,2013-04-23 01:16:00,
2013-04-22 18:21:00,56.5,29.1,30.33,ENE,68,6.0,14.0,35,0.00,,,0.00,Weather View 32 v70,2013-04-23 01:21:00,
2013-04-22 18:26:00,54.7,28.2,30.33,ENE,64,10.0,14.0,36,0.00,,,0.00,Weather View 32 v70,2013-04-23 01:26:00,
2013-04-22 18:31:00,51.4,26.0,30.33,NNE,30,7.0,14.0,37,0.00,,,0.00,Weather View 32 v70,2013-04-23 01:31:00,
2013-04-22 18:36:00,50.5,25.2,30.33,SE,145,6.0,14.0,37,0.00,,,0.00,Weather View 32 v70,2013-04-23 01:36:00,
2013-04-22 18:41:00,50.0,24.7,30.33,SW,223,6.0,14.0,37,0.00,,,0.00,Weather View 32 v70,2013-04-23 01:41:00,
2013-04-22 18:46:00,49.6,24.4,30.33,SW,223,3.0,14.0,37,0.00,,,0.00,Weather View 32 v70,2013-04-23 01:46:00,
2013-04-22 18:51:00,49.3,24.1,30.33,SW,223,7.0,14.0,37,0.00,,,0.00,Weather View 32 v70,2013-04-23 01:51:00,
2013-04-22 18:56:00,49.1,23.9,30.33,ENE,77,11.0,14.0,37,0.00,,,0.00,Weather View 32 v70,2013-04-23 01:56:00,
2013-04-22 19:01:00,48.7,23.6,30.33,East,101,8.0,14.0,37,0.00,,,0.00,Weather View 32 v70,2013-04-23 02:01:00,
2013-04-22 19:06:00,48.6,23.4,30.33,ESE,115,6.0,14.0,37,0.00,,,0.00,Weather View 32 v70,2013-04-23 02:06:00,
2013-04-22 19:11:00,48.2,23.1,30.33,ESE,119,8.0,13.0,37,0.00,,,0.00,Weather View 32 v70,2013-04-23 02:11:00,
2013-04-22 19:16:00,48.0,22.9,30.33,ENE,65,5.0,13.0,37,0.00,,,0.00,Weather View 32 v70,2013-04-23 02:16:00,
2013-04-22 19:22:00,47.7,22.6,30.33,East,96,8.0,13.0,37,0.00,,,0.00,Weather View 32 v70,2013-04-23 02:22:00,
2013-04-22 19:27:00,47.3,22.3,30.33,ENE,63,6.0,13.0,37,0.00,,,0.00,Weather View 32 v70,2013-04-23 02:27:00,
2013-04-22 19:32:00,47.1,22.1,30.33,East,92,4.0,13.0,37,0.00,,,0.00,Weather View 32 v70,2013-04-23 02:32:00,
2013-04-22 19:37:00,46.8,21.8,30.33,ESE,117,5.0,13.0,37,0.00,,,0.00,Weather View 32 v70,2013-04-23 02:37:00,
2013-04-22 19:42:00,46.4,21.5,30.33,East,99,4.0,13.0,37,0.00,,,0.00,Weather View 32 v70,2013-04-23 02:42:00,
2013-04-22 19:47:00,46.0,21.8,30.33,ESE,107,5.0,13.0,38,0.00,,,0.00,Weather View 32 v70,2013-04-23 02:47:00,
2013-04-22 19:52:00,45.3,21.2,30.33,ESE,107,6.0,13.0,38,0.00,,,0.00,Weather View 32 v70,2013-04-23 02:52:00,
2013-04-22 19:57:00,45.0,20.8,30.33,ESE,109,5.0,13.0,38,0.00,,,0.00,Weather View 32 v70,2013-04-23 02:57:00,
2013-04-22 20:02:00,44.4,20.4,30.33,East,89,3.0,13.0,38,0.00,,,0.00,Weather View 32 v70,2013-04-23 03:02:00,
2013-04-22 20:07:00,44.1,20.0,30.36,ESE,113,3.0,13.0,38,0.00,,,0.00,Weather View 32 v70,2013-04-23 03:07:00,
2013-04-22 20:12:00,43.7,19.7,30.36,East,82,4.0,13.0,38,0.00,,,0.00,Weather View 32 v70,2013-04-23 03:12:00,
2013-04-22 20:17:00,43.3,19.4,30.36,ESE,110,6.0,10.0,38,0.00,,,0.00,Weather View 32 v70,2013-04-23 03:17:00,
2013-04-22 20:22:00,42.8,18.9,30.36,East,90,3.0,10.0,38,0.00,,,0.00,Weather View 32 v70,2013-04-23 03:22:00,
2013-04-22 20:27:00,42.4,19.2,30.36,East,90,3.0,10.0,39,0.00,,,0.00,Weather View 32 v70,2013-04-23 03:27:00,
2013-04-22 20:32:00,41.9,18.7,30.36,East,90,2.0,8.0,39,0.00,,,0.00,Weather View 32 v70,2013-04-23 03:32:00,
2013-04-22 20:37:00,41.4,18.2,30.36,East,90,0.0,8.0,39,0.00,,,0.00,Weather View 32 v70,2013-04-23 03:37:00,
2013-04-22 20:42:00,40.6,17.6,30.36,East,89,0.0,8.0,39,0.00,,,0.00,Weather View 32 v70,2013-04-23 03:42:00,
2013-04-22 20:47:00,39.9,16.9,30.36,East,90,0.0,8.0,39,0.00,,,0.00,Weather View 32 v70,2013-04-23 03:47:00,
2013-04-22 20:52:00,39.0,16.1,30.36,East,90,0.0,8.0,39,0.00,,,0.00,Weather View 32 v70,2013-04-23 03:52:00,
2013-04-22 20:57:00,38.1,15.3,30.36,East,89,0.0,8.0,39,0.00,,,0.00,Weather View 32 v70,2013-04-23 03:57:00,
2013-04-22 21:01:00,37.4,14.7,30.36,East,90,0.0,8.0,39,0.00,,,0.00,Weather View 32 v70,2013-04-23 04:01:00,
2013-04-22 21:03:00,37.6,14.8,30.36,East,90,0.0,8.0,39,0.00,,,0.00,Weather View 32 v70,2013-04-23 04:03:00,
2013-04-22 21:08:00,36.5,14.4,30.36,East,90,0.0,6.0,40,0.00,,,0.00,Weather View 32 v70,2013-04-23 04:08:00,
2013-04-22 21:13:00,35.8,13.8,30.36,East,90,0.0,6.0,40,0.00,,,0.00,Weather View 32 v70,2013-04-23 04:13:00,
2013-04-22 21:18:00,35.2,13.3,30.36,East,90,0.0,5.0,40,0.00,,,0.00,Weather View 32 v70,2013-04-23 04:18:00,
2013-04-22 21:22:00,34.9,13.0,30.36,East,90,0.0,4.0,40,0.00,,,0.00,Weather View 32 v70,2013-04-23 04:22:00,
2013-04-22 21:27:00,34.3,13.1,30.36,East,90,0.0,4.0,41,0.00,,,0.00,Weather View 32 v70,2013-04-23 04:27:00,
2013-04-22 21:32:00,33.8,12.6,30.36,East,89,0.0,3.0,41,0.00,,,0.00,Weather View 32 v70,2013-04-23 04:32:00,
2013-04-22 21:37:00,33.4,12.2,30.36,East,90,0.0,3.0,41,0.00,,,0.00,Weather View 32 v70,2013-04-23 04:37:00,
2013-04-22 21:42:00,33.1,11.9,30.36,East,90,0.0,3.0,41,0.00,,,0.00,Weather View 32 v70,2013-04-23 04:42:00,
2013-04-22 21:48:00,32.7,11.6,30.36,East,90,0.0,3.0,41,0.00,,,0.00,Weather View 32 v70,2013-04-23 04:48:00,
2013-04-22 21:53:00,32.2,11.1,30.36,East,90,3.0,3.0,41,0.00,,,0.00,Weather View 32 v70,2013-04-23 04:53:00,
2013-04-22 21:58:00,31.6,10.6,30.36,East,90,3.0,4.0,41,0.00,,,0.00,Weather View 32 v70,2013-04-23 04:58:00,
2013-04-22 22:03:00,31.1,10.7,30.36,East,90,3.0,4.0,42,0.00,,,0.00,Weather View 32 v70,2013-04-23 05:03:00,
2013-04-22 22:08:00,30.7,10.3,30.39,East,90,3.0,4.0,42,0.00,,,0.00,Weather View 32 v70,2013-04-23 05:08:00,
2013-04-22 22:13:00,30.4,10.0,30.39,East,90,0.0,4.0,42,0.00,,,0.00,Weather View 32 v70,2013-04-23 05:13:00,
2013-04-22 22:18:00,30.0,9.7,30.39,East,89,0.0,4.0,42,0.00,,,0.00,Weather View 32 v70,2013-04-23 05:18:00,
2013-04-22 22:23:00,29.7,9.4,30.39,East,90,0.0,4.0,42,0.00,,,0.00,Weather View 32 v70,2013-04-23 05:23:00,
2013-04-22 22:28:00,29.5,9.2,30.39,East,89,0.0,4.0,42,0.00,,,0.00,Weather View 32 v70,2013-04-23 05:28:00,
2013-04-22 22:33:00,29.3,9.0,30.39,East,90,0.0,4.0,42,0.00,,,0.00,Weather View 32 v70,2013-04-23 05:33:00,
2013-04-22 22:38:00,29.1,8.9,30.39,East,90,0.0,4.0,42,0.00,,,0.00,Weather View 32 v70,2013-04-23 05:38:00,
2013-04-22 22:43:00,28.9,8.7,30.39,East,90,0.0,4.0,42,0.00,,,0.00,Weather View 32 v70,2013-04-23 05:43:00,
2013-04-22 22:48:00,28.6,8.4,30.39,East,90,0.0,4.0,42,0.00,,,0.00,Weather View 32 v70,2013-04-23 05:48:00,
2013-04-22 22:53:00,28.4,8.7,30.39,East,90,0.0,4.0,43,0.00,,,0.00,Weather View 32 v70,2013-04-23 05:53:00,
2013-04-22 22:58:00,28.2,8.6,30.39,East,90,0.0,4.0,43,0.00,,,0.00,Weather View 32 v70,2013-04-23 05:58:00,
2013-04-22 23:03:00,28.0,8.4,30.39,East,89,0.0,4.0,43,0.00,,,0.00,Weather View 32 v70,2013-04-23 06:03:00,
2013-04-22 23:08:00,27.9,8.2,30.39,East,90,0.0,3.0,43,0.00,,,0.00,Weather View 32 v70,2013-04-23 06:08:00,
2013-04-22 23:13:00,27.9,8.2,30.39,East,90,0.0,0.0,43,0.00,,,0.00,Weather View 32 v70,2013-04-23 06:13:00,
2013-04-22 23:18:00,27.5,7.9,30.39,East,90,0.0,0.0,43,0.00,,,0.00,Weather View 32 v70,2013-04-23 06:18:00,
2013-04-22 23:23:00,27.3,7.8,30.39,East,90,0.0,0.0,43,0.00,,,0.00,Weather View 32 v70,2013-04-23 06:23:00,
2013-04-22 23:28:00,27.1,7.6,30.39,East,90,0.0,0.0,43,0.00,,,0.00,Weather View 32 v70,2013-04-23 06:28:00,
2013-04-22 23:33:00,27.0,7.4,30.39,East,90,0.0,0.0,43,0.00,,,0.00,Weather View 32 v70,2013-04-23 06:33:00,
2013-04-22 23:38:00,26.8,7.3,30.39,East,90,0.0,0.0,43,0.00,,,0.00,Weather View 32 v70,2013-04-23 06:38:00,
2013-04-22 23:43:00,26.8,7.3,30.39,East,90,0.0,0.0,43,0.00,,,0.00,Weather View 32 v70,2013-04-23 06:43:00,
2013-04-22 23:49:00,26.6,7.1,30.39,East,89,0.0,0.0,43,0.00,,,0.00,Weather View 32 v70,2013-04-23 06:49:00,
2013-04-22 23:54:00,26.4,7.4,30.39,East,90,0.0,0.0,44,0.00,,,0.00,Weather View 32 v70,2013-04-23 06:54:00,
2013-04-22 23:59:00,26.2,7.3,30.39,East,89,0.0,0.0,44,0.00,,,0.00,Weather View 32 v70,2013-04-23 06:59:00,